[[{"header":{"parameterUnit":"m.s-1","parameterCategory":1,"la1":30.2991,"la2":30.254,"lo1":-89.0895,"lo2":-89.0444,"dy":0.0017,"dx":0.0017,"nx":28,"ny":28,"refTime":"2025-03-03T03:00:00:Z","depth":0,"parameterNumber":2,"parameterNumberName":"U-component_of_WINDS"},"data":[0,0,0,0,0,0,0,0,0,0,0,0,0,0,0,0,0,0,0,0,0,0,0,0,0,0,0,0,0,0,0,0,0,0,0,0,0,0,0,0,0,0,0,0,0,0,0,0,0,0,0,0,0,0,0,0,0,0,-4.0998,-4.0998,0,-4.1071,-4.1072,-4.1073,-4.111,-4.111,-4.111,-4.111,-4.1182,-4.1184,-4.1186,0,0,0,0,0,0,0,0,0,0,0,0,0,-4.0886,-4.0888,-4.0997,-4.0998,-4.0999,-4.1071,-4.1072,-4.1073,-4.111,-4.111,-4.111,-4.111,-4.1182,-4.1184,-4.1186,0,0,0,0,0,0,0,0,0,0,0,0,0,-4.0945,-4.0889,-4.0997,-4.1026,-4.1029,-4.1071,-4.1072,-4.1074,-4.111,-4.111,-4.111,-4.111,-4.1181,-4.1184,-4.1187,-4.1204,0,0,-4.1195,-4.1197,0,0,0,0,0,0,0,0,-4.0941,-4.0949,-4.1021,-4.1024,-4.1028,-4.1081,-4.106,-4.1117,-4.111,-4.1079,-4.111,-4.111,-4.1148,-4.1154,-4.1168,-4.1208,-4.1211,-4.1196,-4.1197,-4.1199,-4.1199,0,0,0,0,0,0,0,-4.0937,-4.0946,-4.1027,-4.1022,-4.1026,-4.1035,-4.1043,-4.1071,-4.1113,-4.1082,-4.1085,-4.1093,-4.115,-4.1165,-4.117,-4.1212,-4.1196,-4.1198,-4.12,-4.1201,-4.1272,-4.1272,0,0,0,0,0,0,-4.0929,-4.0942,-4.1024,-4.1029,-4.0984,-4.1037,-4.1046,-4.1064,-4.1113,-4.112,-4.1093,-4.1094,-4.116,-4.1166,-4.1172,-4.1197,-4.1199,-4.1201,-4.1203,-4.1271,-4.1272,-4.1272,0,0,0,0,0,0,-4.0926,-4.0936,-4.1021,-4.0986,-4.0998,-4.1039,-4.1059,-4.1066,-4.108,-4.1121,-4.1128,-4.11,-4.116,-4.1168,-4.1197,-4.12,-4.1203,-4.1205,-4.1271,-4.1271,-4.1272,-4.1246,0,0,0,0,0,0,-4.0923,-4.0935,-4.0942,-4.0986,-4.1,-4.1044,-4.1059,-4.1067,-4.1085,-4.1088,-4.113,-4.1137,-4.1161,-4.1192,-4.12,-4.1204,-4.1208,-4.1271,-4.1271,-4.1272,-4.1247,-4.1246,-4.1245,0,0,0,0,0,-4.0919,-4.0931,-4.0942,-4.0952,-4.101,-4.1045,-4.1052,-4.1081,-4.1086,-4.1093,-4.112,-4.1135,-4.1199,-4.1195,-4.1203,-4.1209,-4.1271,-4.1271,-4.1272,-4.1248,-4.1246,-4.1245,0,0,0,0,0,0,-4.0885,-4.0937,-4.095,-4.0977,-4.1006,-4.1051,-4.1061,-4.1078,-4.1105,-4.1107,-4.114,-4.1149,-4.1174,-4.1195,-4.1189,-4.123,-4.1237,-4.1239,-4.1215,-4.1214,-4.1213,-4.1207,-4.121,0,0,0,0,0,-4.088,-4.0905,-4.0949,-4.0969,-4.0983,-4.102,-4.1036,-4.1055,-4.1087,-4.1099,-4.1127,-4.1156,-4.1183,-4.12,-4.1226,-4.1251,-4.126,-4.1259,-4.1258,-4.1256,-4.1257,-4.1273,-4.1273,-4.1273,-4.1273,-4.1273,0,0,-4.0871,-4.0903,-4.0916,-4.0963,-4.0988,-4.1012,-4.1029,-4.1054,-4.1073,-4.1102,-4.1131,-4.1153,-4.1188,-4.1214,-4.1228,-4.1232,-4.126,-4.1257,-4.1255,-4.1257,-4.1273,-4.1273,-4.1273,-4.1273,-4.1273,-4.1273,0,0,-4.0868,-4.0894,-4.0914,-4.0939,-4.0977,-4.1002,-4.1007,-4.1049,-4.1065,-4.1095,-4.1118,-4.1141,-4.1185,-4.121,-4.1228,-4.1236,-4.1251,-4.1243,-4.1236,-4.1251,-4.1251,-4.1251,-4.1255,-4.1255,-4.1245,-4.1245,-4.1244,0,-4.0852,-4.089,-4.0922,-4.0946,-4.0966,-4.0995,-4.1016,-4.1038,-4.1082,-4.1095,-4.11,-4.1159,-4.1184,-4.1217,-4.122,-4.1233,-4.124,-4.1238,-4.1249,-4.1249,-4.125,-4.1253,-4.1255,-4.1243,-4.1243,-4.1244,-4.1244,0,-4.0868,-4.0895,-4.0906,-4.095,-4.0971,-4.0993,-4.1028,-4.1046,-4.1064,-4.1088,-4.1119,-4.115,-4.1185,-4.1194,-4.1212,-4.1231,-4.1232,-4.1242,-4.125,-4.1248,-4.1252,-4.1254,-4.1242,-4.1242,-4.1242,-4.1243,0,0,-4.0844,-4.0906,-4.091,-4.0931,-4.0976,-4.0997,-4.102,-4.1055,-4.107,-4.11,-4.1121,-4.1159,-4.117,-4.1191,-4.1211,-4.1224,-4.1229,-4.1233,-4.1234,-4.1231,-4.1253,-4.1245,-4.1246,-4.124,-4.1241,-4.1241,-4.125,0,-4.0847,-4.0891,-4.0921,-4.0954,-4.0979,-4.1008,-4.1029,-4.1059,-4.1082,-4.1107,-4.1133,-4.116,-4.1171,-4.1184,-4.1198,-4.1225,-4.1234,-4.1225,-4.126,-4.1261,-4.125,-4.1248,-4.1239,-4.1246,-4.1252,-4.1252,-4.1252,0,-4.0856,-4.0886,-4.0922,-4.0965,-4.0977,-4.0995,-4.103,-4.1054,-4.1088,-4.1105,-4.1129,-4.115,-4.1177,-4.1183,-4.122,-4.1214,-4.123,-4.1245,-4.1246,-4.125,-4.1256,-4.1252,-4.1249,-4.125,-4.1255,-4.1255,-4.1254,0,-4.0835,-4.0885,-4.0913,-4.093,-4.0981,-4.0993,-4.1015,-4.105,-4.107,-4.1101,-4.1114,-4.1147,-4.1165,-4.119,-4.122,-4.1221,-4.1254,-4.1262,-4.1268,-4.1268,-4.1273,-4.1272,-4.1273,-4.1284,-4.1284,-4.1284,-4.1284,0,-4.0835,-4.0855,-4.0904,-4.0921,-4.0946,-4.098,-4.1003,-4.1027,-4.1059,-4.1081,-4.1108,-4.1129,-4.1167,-4.1193,-4.1216,-4.1244,-4.1252,-4.1266,-4.1272,-4.1263,-4.1261,-4.1274,-4.1274,-4.1284,-4.1284,-4.1284,-4.1284,0,-4.0815,-4.0849,-4.0881,-4.0928,-4.0941,-4.0956,-4.0996,-4.1014,-4.104,-4.1068,-4.1077,-4.1117,-4.1148,-4.1181,-4.1223,-4.1239,-4.1266,-4.1274,-4.1254,-4.1258,-4.1262,-4.1261,-4.127,-4.1274,-4.1282,-4.1282,-4.1282,0,-4.0812,-4.0829,-4.0878,-4.0896,-4.0918,-4.0945,-4.0966,-4.1001,-4.1021,-4.1063,-4.1076,-4.111,-4.1138,-4.1187,-4.122,-4.1253,-4.1262,-4.1263,-4.1267,-4.1259,-4.1263,-4.1261,-4.1263,-4.1261,-4.1261,-4.1261,-4.1261,0,-4.0805,-4.0821,-4.085,-4.0885,-4.0909,-4.0939,-4.0969,-4.0981,-4.1023,-4.1044,-4.1077,-4.11,-4.1144,-4.1177,-4.1214,-4.1237,-4.1256,-4.126,-4.1263,-4.1254,-4.1242,-4.1249,-4.1251,-4.1259,-4.1259,-4.1259,-4.1259,-4.1259,-4.0794,-4.0811,-4.0848,-4.088,-4.0907,-4.0935,-4.0954,-4.0983,-4.1012,-4.1051,-4.107,-4.1103,-4.1139,-4.1191,-4.1213,-4.124,-4.1245,-4.125,-4.1251,-4.1251,-4.1249,-4.1238,-4.1247,-4.1247,-4.1247,-4.1247,-4.1247,0,-4.0788,-4.0814,-4.0843,-4.0885,-4.091,-4.0927,-4.0962,-4.0982,-4.1011,-4.1043,-4.1072,-4.111,-4.1143,-4.1179,-4.1214,-4.1229,-4.1238,-4.1237,-4.1236,-4.1241,-4.1242,-4.1236,-4.1228,-4.1228,-4.1228,-4.1228,-4.1228,-4.1228,-4.0788,-4.0817,-4.0838,-4.0882,-4.0908,-4.0941,-4.096,-4.0986,-4.1012,-4.1054,-4.1082,-4.1106,-4.114,-4.1178,-4.1209,-4.1219,-4.123,-4.1226,-4.1238,-4.1239,-4.124,-4.1242,-4.1236,-4.1229,-4.1228,-4.1235,-4.1235,-4.1235]},{"header":{"parameterUnit":"m.s-1","parameterCategory":1,"la1":30.2991,"la2":30.254,"lo1":-89.0895,"lo2":-89.0444,"dy":0.0017,"dx":0.0017,"nx":28,"ny":28,"refTime":"2025-03-03T03:00:00:Z","depth":0,"parameterNumber":3,"parameterNumberName":"V-component_of_WINDS"},"data":[0,0,0,0,0,0,0,0,0,0,0,0,0,0,0,0,0,0,0,0,0,0,0,0,0,0,0,0,0,0,0,0,0,0,0,0,0,0,0,0,0,0,0,0,0,0,0,0,0,0,0,0,0,0,0,0,0,0,6.6219,6.6221,0,6.6429,6.6431,6.6433,6.6489,6.6488,6.6487,6.6485,6.6697,6.6704,6.6711,0,0,0,0,0,0,0,0,0,0,0,0,0,6.5866,6.5872,6.6219,6.6221,6.6224,6.6428,6.6431,6.6434,6.6489,6.6488,6.6486,6.6485,6.6695,6.6703,6.6711,0,0,0,0,0,0,0,0,0,0,0,0,0,6.6042,6.5874,6.6218,6.6276,6.6284,6.6428,6.6431,6.6435,6.649,6.6488,6.6486,6.6484,6.6693,6.6702,6.6713,6.6813,0,0,6.6744,6.6748,0,0,0,0,0,0,0,0,6.6032,6.6055,6.6265,6.6272,6.6281,6.6431,6.6385,6.6562,6.649,6.6411,6.6485,6.6483,6.661,6.6627,6.667,6.6823,6.6832,6.6745,6.6751,6.6755,6.6758,0,0,0,0,0,0,0,6.6019,6.6046,6.6302,6.6268,6.6278,6.6292,6.6315,6.6418,6.6519,6.6418,6.6423,6.6447,6.6614,6.666,6.6676,6.6835,6.6744,6.6753,6.676,6.6764,6.7086,6.7088,0,0,0,0,0,0,6.5997,6.6035,6.6295,6.6308,6.6149,6.63,6.6325,6.6385,6.6518,6.6536,6.6448,6.6449,6.6644,6.6664,6.6683,6.6813,6.6755,6.6765,6.6771,6.7083,6.7086,6.7089,0,0,0,0,0,0,6.599,6.602,6.6287,6.6173,6.6208,6.6308,6.6374,6.639,6.6436,6.6541,6.6558,6.6477,6.6643,6.6669,6.6782,6.6821,6.6769,6.6779,6.708,6.7084,6.7087,6.7071,0,0,0,0,0,0,6.5979,6.6017,6.6056,6.6174,6.6214,6.6381,6.6376,6.6395,6.6454,6.6457,6.6572,6.659,6.6644,6.6766,6.6792,6.6834,6.6787,6.7077,6.7082,6.7086,6.7069,6.7074,6.7078,0,0,0,0,0,6.5966,6.6041,6.6058,6.6089,6.6265,6.6383,6.6407,6.6468,6.6457,6.6498,6.6565,6.6586,6.6812,6.6777,6.6807,6.6853,6.7075,6.7081,6.7086,6.7067,6.7073,6.7078,0,0,0,0,0,0,6.5924,6.6058,6.6077,6.6192,6.6276,6.6393,6.6445,6.6472,6.656,6.6558,6.663,6.6656,6.6764,6.6819,6.6778,6.6959,6.6944,6.6956,6.6919,6.6926,6.6931,6.6916,6.6795,0,0,0,0,0,6.5928,6.6014,6.6126,6.6217,6.6258,6.6344,6.6398,6.6439,6.6528,6.6563,6.6639,6.6725,6.6816,6.6874,6.6963,6.7077,6.7105,6.7123,6.7128,6.7132,6.7141,6.7209,6.722,6.7107,6.7107,6.7107,0,0,6.5937,6.6021,6.607,6.621,6.628,6.6368,6.6374,6.6465,6.6531,6.6577,6.6689,6.6748,6.6848,6.6963,6.7018,6.7013,6.7179,6.7139,6.7141,6.7149,6.7216,6.7227,6.7236,6.711,6.711,6.7109,0,0,6.6,6.607,6.6156,6.6227,6.6333,6.6391,6.6411,6.6525,6.6566,6.668,6.6718,6.6797,6.6951,6.7022,6.7078,6.7172,6.7195,6.7198,6.7224,6.729,6.7298,6.7307,6.7343,6.7355,6.7207,6.7207,6.7207,0,6.5997,6.6131,6.6196,6.6287,6.6349,6.6397,6.6485,6.655,6.6679,6.6721,6.6714,6.6911,6.6982,6.7116,6.7139,6.7182,6.7209,6.7186,6.7292,6.7301,6.731,6.7345,6.7358,6.7207,6.7207,6.7207,6.7207,0,6.6125,6.6217,6.6273,6.64,6.6468,6.6556,6.6636,6.6697,6.6732,6.679,6.6908,6.6995,6.7104,6.7138,6.7172,6.7279,6.7273,6.7278,6.7264,6.7319,6.7354,6.7368,6.7207,6.7207,6.7207,6.7207,0,0,6.6165,6.6329,6.6348,6.6408,6.6531,6.6604,6.6695,6.6804,6.6856,6.6944,6.7025,6.7156,6.7163,6.7227,6.727,6.7327,6.7399,6.7326,6.7329,6.7339,6.7526,6.7522,6.7537,6.7415,6.7418,6.742,6.7518,0,6.6244,6.6412,6.6474,6.6611,6.6699,6.6747,6.6828,6.6912,6.697,6.7053,6.7116,6.721,6.721,6.725,6.7308,6.7378,6.7438,6.7371,6.7492,6.7496,6.7468,6.7554,6.7551,6.7638,6.7532,6.7534,6.7536,0,6.6359,6.6451,6.6598,6.6713,6.6752,6.6824,6.693,6.7009,6.7106,6.7144,6.7218,6.7258,6.7357,6.7337,6.7476,6.743,6.7483,6.7525,6.753,6.7544,6.752,6.7574,6.7668,6.7682,6.7557,6.7555,6.7554,0,6.6377,6.6538,6.6647,6.6696,6.6833,6.6882,6.6941,6.7037,6.71,6.7193,6.7235,6.7337,6.7393,6.7472,6.7539,6.7518,6.7674,6.7658,6.771,6.7708,6.7741,6.7738,6.7847,6.7771,6.7771,6.7771,6.7771,0,6.646,6.6549,6.6658,6.6725,6.6827,6.6898,6.6997,6.7059,6.7144,6.7225,6.7272,6.7347,6.743,6.7516,6.7569,6.7678,6.7703,6.7737,6.7751,6.7735,6.7731,6.7771,6.7768,6.7775,6.7774,6.7773,6.7772,0,6.6498,6.6574,6.6698,6.6818,6.685,6.692,6.7023,6.7091,6.7151,6.7254,6.7282,6.7377,6.7482,6.7557,6.769,6.7726,6.7844,6.7856,6.7812,6.7819,6.7867,6.7863,6.8007,6.8031,6.7937,6.7938,6.7939,0,6.6547,6.6617,6.6745,6.6804,6.6864,6.6956,6.7022,6.7095,6.7161,6.728,6.7334,6.7442,6.7532,6.7697,6.7778,6.7881,6.7898,6.7941,6.7913,6.7896,6.7902,6.7898,6.7906,6.7946,6.7946,6.7947,6.7947,0,6.6627,6.6663,6.6755,6.6862,6.6938,6.7025,6.7113,6.7158,6.7248,6.732,6.7428,6.7498,6.7637,6.7744,6.7856,6.7917,6.7949,6.7956,6.7974,6.7959,6.7931,6.795,6.7825,6.7952,6.7952,6.7951,6.7951,6.7951,6.6674,6.674,6.6842,6.6944,6.7018,6.71,6.7171,6.7242,6.7334,6.7454,6.7491,6.7604,6.7703,6.7857,6.792,6.801,6.8008,6.8033,6.804,6.8046,6.8047,6.7916,6.803,6.803,6.803,6.803,6.803,0,6.6759,6.6828,6.6921,6.7044,6.7125,6.7148,6.7247,6.7314,6.7413,6.7503,6.7592,6.7718,6.7824,6.7914,6.8024,6.8078,6.8096,6.8105,6.8103,6.8117,6.8041,6.8016,6.809,6.809,6.8089,6.8089,6.8089,6.8089,6.6813,6.6927,6.6974,6.7126,6.7194,6.7306,6.7362,6.7438,6.7511,6.765,6.7739,6.7797,6.7889,6.8006,6.8104,6.8128,6.8167,6.8174,6.8201,6.8129,6.8122,6.8115,6.8092,6.8181,6.8181,6.8271,6.8271,6.8272]}]]